STARLINK-32467, 61713

Orbit data source: Space-Track

STARLINK-32467, 61713 is a payload satellite owned by SpaceX/Seattle (US) in LEO that was launched on Wed, 30 Oct 2024 UTC via an FALCON 9 launch vehicle from the Air Force Eastern Test Range (AFETR). Payloads include a variety of satellites, spacecraft, and rockets equipped with specific instruments for various scientific and technological missions. These include communications satellites like Starlink; space stations such as the ISS; scientific satellites like the Hubble; Earth observation satellites from companies like Planet Labs, Umbra, and HawkEye 360; GPS; miniature CubeSats for education and research; and military/defense satellites.

Loading next visibility...
STARLINK-32467 details
Identifier
61713, 2024-196G
Orbit
LEO
Last TLE update8 hours ago
Origin
Flag of USSpaceX/Seattle (US)
ManufacturerSpaceX/Seattle
MissionOperational spacecraft
Bus & MotorSTARLINK V2M, Unknown motor
Mass730 kg wet, ~700 kg dry
Launch date (UTC)
2024-10-30 (2 months ago)
Launch vehicle
FALCON 9
Launch site
Air Force Eastern Test Range (AFETR)
Object type
Payload
Rocket body
Debris
Shape & HBRUnknown
Radar Cross SectionLarge (>1 m²)

Expand to show TLE details & history

TLE from 8 hours ago
0 STARLINK-32467
1 61713U 24196G   24361.10297212  .00000803  00000-0  30055-4 0  9998
2 61713  53.1615 340.9063 0001822 106.6456 253.4749 15.39624204  9758
Epoch: 2024-12-26T02:28Z
Definitive object data (Epoch: 2024-12-26T02:28:16.791Z)
Latitude-0.00001°
Longitude-151.25085°
Altitude448.477 km
Speed7.644 km/s
True Right ascension22h 43m 37s
True Declination0° 00' 00"
Sunlit
Object was in daylight at TLE epoch
Visualization TLE readout
Latitude45.14633°
Longitude-21.36747°
Altitude450.708 km
Speed7.648 km/s
Apparent Right ascension02h 40m 37s
Apparent Declination12° 21' 23"
Sunlit
Object is in full shadow
Visualization observer readout
Local Sidereal Time10:07:29
Azimuth293.577° NW
Elevation-8.043°
Doppler factor1
Orbital elements
Apogee altitude448.721 km
Perigee altitude446.233 km
Semi-major axis6,825.614 km
Eccentricity0.0001822
Inclination53.1615°
RAAN340.9063°
Arg. of periapsis106.6456°
True anomaly253.45489°
Mean anomaly253.4749°
Eccentric anomaly253.46489°
Mean motion3.84885 °/min
BSTAR0.000030055
Orbital period93.53 mins
Loading maneuver chart data...
Loading historical data...
Loading historical data...
Loading historical data...
Loading historical data...
Loading historical data...
Loading historical data...
Loading historical data...

STARLINK-32467 Visibility forecast

Observer location: undefined°, undefined

Span
Click to sort rows by Start time (UTC) header in descending order
Start Az.
Max El. time (UTC)
Max El. Az.
Max El.
End time (UTC)
End Az.
4 mins2024-12-27 00:26:14.984Z169.053° S2024-12-27 00:28:14.984Z131.048° SE17.244°2024-12-27 00:30:14.984Z91.207° ESE
5 mins2024-12-27 02:03:14.984Z256.947° W2024-12-27 02:05:14.984Z316.695° NNW36.363°2024-12-27 02:08:14.984Z37.858° NE
5 mins2024-12-27 08:36:14.984Z293.344° NW2024-12-27 08:38:14.984Z190.181° SSW39.268°2024-12-27 08:41:14.984Z143.539° SSE
|